Flag for India Weather past 2 weeks in Jalandhar, Punjab, India

Now
86 °F

Haze.


Feels Like: 86 °F
Forecast: 81 / 108 °F
Wind: No wind

Location: Amritsar Airport

Current Time: May 30, 2015 at 1:01:20 AM

Latest Report: May 29, 2015 at 11:30 PM


Visibility: 2 mi

Pressure: 29.68 "Hg

Humidity: 43%

Dew point: 61 °F

Location of JalandharLocation

Historic Weather in Jalandhar — Graph

°F

Jalandhar temperature yesterday

Maximum temperature yesterday: 102 °F (at 2:30 PM)
Minimum temperature yesterday: 77 °F (at 5:00 AM)
Average temperature yesterday: 90 °F

Past Weeks' High & Low Weather Summary

 TemperatureHumidityPressure
High109 °F (May 23, 2:30 PM)88% (May 15, 7:00 AM)29.86 "Hg (May 15, 7:00 AM)
Low70 °F (May 15, 12:30 AM)7% (May 27, 4:00 PM)29.42 "Hg (May 23, 4:00 PM)
Average91 °F36%29.60 "Hg
* Reported May 14 11:30 PM — May 29 11:30 PM, Jalandhar, Weather by CustomWeather, © 2015

Note: Actual official high and low records may vary slightly from our data, if they occured in-between our weather recording intervals... More about our weather records

Advertising

Jalandhar weather history for previous 24 hours

 ConditionsComfort  
Time TempWeatherWind HumidityBarometerVisibility
11:30 PM
Fri, May 29
86 °FHaze.No wind43%29.68 "Hg2 mi
10:30 PM88 °FDuststorm.No wind40%29.68 "Hg2 mi
9:30 PM90 °FPassing clouds.No wind36%29.68 "Hg2 mi
8:30 PM93 °FPassing clouds.No wind28%29.65 "Hg2 mi
8:00 PM93 °FPassing clouds.No wind28%29.65 "Hg3 mi
7:00 PM99 °FDuststorm.1 mph24%29.62 "Hg3 mi
6:30 PM100 °FDuststorm.6 mph21%29.62 "Hg3 mi
5:30 PM102 °FDuststorm.7 mph18%29.59 "Hg3 mi
2:30 PM102 °FScattered clouds.7 mph20%29.62 "Hg3 mi
2:00 PM100 °FBroken clouds.9 mph22%29.65 "Hg3 mi
1:30 PM100 °FBroken clouds.7 mph22%29.65 "Hg3 mi
1:00 PM99 °FBroken clouds.10 mph25%29.68 "Hg3 mi
12:30 PM99 °FBroken clouds.14 mph25%29.68 "Hg3 mi
11:00 AM95 °FPartly sunny.13 mph30%29.68 "Hg3 mi
10:00 AM91 °FPartly sunny.16 mph34%29.71 "Hg2 mi
9:30 AM91 °FBroken clouds.13 mph36%29.68 "Hg2 mi
9:00 AM90 °FBroken clouds.14 mph38%29.68 "Hg2 mi
8:30 AM88 °FBroken clouds.12 mph43%29.68 "Hg2 mi
8:00 AM86 °FBroken clouds.13 mph46%29.68 "Hg2 mi
7:00 AM82 °FBroken clouds.2 mph51%29.62 "Hg2 mi
6:30 AM81 °FBroken clouds.3 mph51%29.62 "Hg2 mi
6:00 AM79 °FScattered clouds.No wind58%29.62 "Hg2 mi
5:00 AM77 °FPassing clouds.No wind61%29.62 "Hg2 mi
4:00 AM81 °FPassing clouds.No wind51%29.56 "Hg2 mi
3:00 AM81 °FPassing clouds.No wind48%29.56 "Hg2 mi
2:30 AM82 °FPassing clouds.3 mph48%29.56 "Hg2 mi
2:00 AM82 °FPassing clouds.2 mph48%29.59 "Hg2 mi
1:30 AM82 °FPassing clouds.No wind45%29.59 "Hg2 mi
Weather by CustomWeather, © 2015

See weather overviewHow to use our weather pages